KJ4EBE Weather Reports


time (UTC)temp
C
wind
direction
speed
KPH
gust
KPH
rain 1hr
cm
rain 24hr
cm
rain mn
cm
humidity
%
barometer
mb
20260509202011 33 297 0.0 6.4 0.00 0.00 0.00 54 1009.2
20260509201506 33 309 0.0 0.0 0.00 0.00 0.00 59 1009.2
20260509201004 33 74 1.6 3.2 0.00 0.00 0.00 54 1009.4
20260509200503 32 352 0.0 0.0 0.00 0.00 0.00 53 1009.3
20260509200000 32 283 0.0 3.2 0.00 0.00 0.00 53 1009.3
20260509195455 32 273 3.2 3.2 0.00 0.00 0.00 53 1009.3
20260509194950 32 73 3.2 4.8 0.00 0.00 0.00 54 1009.5
20260509194445 32 120 3.2 3.2 0.00 0.00 0.00 55 1009.7
20260509193942 32 336 1.6 4.8 0.00 0.00 0.00 54 1009.5
20260509193437 33 275 0.0 3.2 0.00 0.00 0.00 57 1009.5
20260509192933 32 238 3.2 8.0 0.00 0.00 0.00 51 1009.6
20260509192430 32 275 3.2 3.2 0.00 0.00 0.00 52 1009.6
20260509191925 31 117 1.6 1.6 0.00 0.00 0.00 57 1009.9
20260509191420 31 32 0.0 11.3 0.00 0.00 0.00 55 1010.0
20260509190917 31 242 1.6 9.7 0.00 0.00 0.00 54 1010.0
20260509190414 32 183 0.0 1.6 0.00 0.00 0.00 53 1010.2
20260509185912 32 282 3.2 8.0 0.00 0.00 0.00 52 1010.3
20260509185409 31 266 4.8 4.8 0.00 0.00 0.00 53 1010.4
20260509184905 31 257 0.0 6.4 0.00 0.00 0.00 54 1010.5
20260509184402 31 112 3.2 4.8 0.00 0.00 0.00 57 1010.2
20260509183900 31 201 0.0 4.8 0.00 0.00 0.00 57 1010.8
20260509183354 30 319 3.2 3.2 0.00 0.00 0.00 56 1010.7
20260509182850 30 66 4.8 4.8 0.00 0.00 0.00 59 1010.8
20260509182347 30 75 0.0 3.2 0.00 0.00 0.00 57 1010.9
20260509181845 31 119 0.0 3.2 0.00 0.00 0.00 58 1010.9
20260509181342 31 119 0.0 3.2 0.00 0.00 0.00 58 1011.1
20260509180839 30 72 0.0 3.2 0.00 0.00 0.00 57 1011.1
20260509180335 31 93 0.0 4.8 0.00 0.00 0.00 57 1011.1
20260509175832 30 67 1.6 3.2 0.00 0.00 0.00 58 1011.4
20260509175328 30 99 0.0 4.8 0.00 0.00 0.00 56 1011.1
20260509174824 31 136 3.2 3.2 0.00 0.00 0.00 59 1011.0
20260509174320 31 75 0.0 1.6 0.00 0.00 0.00 62 1011.3
20260509173816 30 341 0.0 3.2 0.00 0.00 0.00 62 1011.3
20260509173312 30 278 0.0 1.6 0.00 0.00 0.00 62 1011.5
20260509172808 30 185 0.0 0.0 0.00 0.00 0.00 63 1011.5
20260509172306 29 253 0.0 3.2 0.00 0.00 0.00 61 1011.5
20260509171800 29 129 0.0 3.2 0.00 0.00 0.00 60 1011.5
20260509171251 30 122 1.6 3.2 0.00 0.00 0.00 57 1011.5
20260509170747 30 89 0.0 1.6 0.00 0.00 0.00 59 1011.6
20260509170244 30 257 0.0 1.6 0.00 0.00 0.00 62 1011.8
20260509165742 30 188 3.2 4.8 0.00 0.00 0.00 60 1011.6
20260509165238 28 96 0.0 0.0 0.00 0.00 0.00 63 1011.8
20260509164734 29 240 0.0 3.2 0.00 0.00 0.00 62 1011.7
20260509164230 30 54 0.0 3.2 0.00 0.00 0.00 64 1011.8
20260509163727 28 165 0.0 6.4 0.00 0.00 0.00 64 1011.5
20260509163223 28 82 1.6 6.4 0.00 0.00 0.00 66 1011.7
20260509162721 28 119 0.0 3.2 0.00 0.00 0.00 66 1011.4
20260509162216 28 102 6.4 6.4 0.00 0.00 0.00 63 1011.3
20260509161712 29 50 1.6 3.2 0.00 0.00 0.00 62 1011.5
20260509161209 29 89 0.0 3.2 0.00 0.00 0.00 67 1011.3
20260509160704 28 94 3.2 4.8 0.00 0.00 0.00 67 1011.3
20260509160200 28 89 0.0 4.8 0.00 0.00 0.00 66 1011.5
20260509155655 28 88 3.2 3.2 0.00 0.00 0.00 70 1011.8
20260509155152 28 7 3.2 6.4 0.00 0.00 0.00 68 1011.6
20260509154648 28 148 0.0 4.8 0.00 0.00 0.00 68 1011.4
20260509154145 28 117 0.0 3.2 0.00 0.00 0.00 70 1011.6
20260509153642 28 212 0.0 3.2 0.00 0.00 0.00 71 1011.5
20260509153139 28 65 0.0 3.2 0.00 0.00 0.00 76 1011.5
20260509152634 28 104 0.0 0.0 0.00 0.00 0.00 74 1011.5
20260509152132 27 48 0.0 3.2 0.00 0.00 0.00 75 1011.4
20260509151628 27 146 0.0 1.6 0.00 0.00 0.00 79 1011.5
20260509151126 26 73 1.6 4.8 0.00 0.00 0.00 78 1011.5
20260509150624 27 15 0.0 3.2 0.00 0.00 0.00 78 1011.1
20260509150122 27 96 1.6 3.2 0.00 0.00 0.00 76 1011.5
20260509145618 27 89 0.0 3.2 0.00 0.00 0.00 78 1011.4
20260509145113 27 93 3.2 3.2 0.00 0.00 0.00 78 1011.4
20260509144610 25 359 1.6 1.6 0.00 0.00 0.00 82 1011.1
20260509144107 25 359 1.6 1.6 0.00 0.00 0.00 82 1010.9
20260509143604 26 102 0.0 1.6 0.00 0.00 0.00 83 1010.9
20260509143102 25 34 0.0 0.0 0.00 0.00 0.00 85 1010.5
20260509142602 25 25 0.0 0.0 0.00 0.00 0.00 84 1010.4
20260509142058 24 322 0.0 0.0 0.00 0.00 0.00 90 1010.5
20260509141554 23 304 0.0 0.0 0.00 0.00 0.00 91 1010.5
20260509141051 23 92 1.6 3.2 0.00 0.00 0.00 89 1010.7
20260509140548 23 2 0.0 3.2 0.00 0.00 0.00 89 1010.3
20260509140046 23 106 0.0 4.8 0.00 0.00 0.00 88 1010.4
20260509135543 24 31 0.0 3.2 0.00 0.00 0.00 87 1010.7
20260509135042 23 83 1.6 4.8 0.00 0.00 0.00 91 1010.6
20260509134538 21 105 1.6 8.0 0.00 0.00 0.00 99 1010.0
20260509134036 21 271 3.2 4.8 0.00 0.00 0.00 99 1009.8
20260509133532 21 191 3.2 3.2 0.00 0.00 0.00 99 1009.7
20260509133030 20 250 4.8 6.4 0.00 0.00 0.00 99 1009.6
20260509132528 20 237 1.6 4.8 0.00 0.00 0.00 99 1009.5
20260509132026 20 237 1.6 6.4 0.00 0.00 0.00 99 1009.8
20260509131521 20 240 0.0 1.6 0.00 0.00 0.00 99 1009.7
20260509131019 20 295 1.6 3.2 0.00 0.00 0.00 99 1009.9
20260509130514 20 44 0.0 3.2 0.00 0.00 0.00 99 1009.8
20260509130011 20 86 3.2 3.2 0.00 0.00 0.00 99 1009.5
20260509125508 20 209 1.6 4.8 0.00 0.00 0.00 99 1009.2
20260509125004 20 93 3.2 6.4 0.00 0.00 0.00 99 1009.4
20260509124501 19 211 1.6 3.2 0.00 0.00 0.00 99 1009.4
20260509123958 19 237 6.4 6.4 0.00 0.00 0.00 99 1009.5
20260509123456 19 188 1.6 8.0 0.00 0.00 0.00 99 1009.3
20260509122951 19 55 0.0 4.8 0.00 0.00 0.00 99 1009.3
20260509122448 18 0 0.0 3.2 0.00 0.00 0.00 99 1009.1
20260509121945 18 18 0.0 3.2 0.00 0.00 0.00 99 1009.2
20260509121442 18 91 4.8 4.8 0.00 0.00 0.00 99 1009.2
20260509120940 18 224 0.0 4.8 0.00 0.00 0.00 99 1009.5
20260509120438 18 193 0.0 3.2 0.00 0.00 0.00 99 1009.2
20260509115935 18 342 0.0 3.2 0.00 0.00 0.00 99 1009.3
20260509115432 18 357 0.0 3.2 0.05 0.00 0.00 99 1009.5
20260509114929 18 69 3.2 3.2 0.05 0.00 0.00 99 1009.4
20260509114428 18 56 0.0 3.2 0.00 0.00 0.00 99 1009.3
20260509113928 18 32 0.0 3.2 0.00 0.00 0.00 99 1009.7
20260509113424 18 169 0.0 3.2 0.00 0.00 0.00 99 1009.8
20260509112921 18 2 1.6 3.2 0.00 0.00 0.00 99 1010.1
20260509112418 18 25 0.0 4.8 0.00 0.00 0.00 99 1010.0
20260509111915 18 189 1.6 3.2 0.00 0.00 0.00 99 1010.2
20260509111412 18 224 1.6 3.2 0.00 0.00 0.00 99 1010.5
20260509110910 18 287 1.6 3.2 0.00 0.00 0.00 99 1010.8
20260509110400 18 131 1.6 3.2 0.00 0.00 0.00 99 1010.9
20260509105859 18 21 0.0 3.2 0.00 0.00 0.00 99 1011.1
20260509105356 18 77 0.0 3.2 0.00 0.00 0.00 99 1011.5
20260509104852 18 191 0.0 3.2 0.00 0.00 0.00 99 1011.8
20260509104349 19 285 1.6 1.6 0.00 0.00 0.00 99 1012.3
20260509103847 19 45 1.6 3.2 0.00 0.00 0.00 99 1012.5
20260509103344 18 32 1.6 3.2 0.00 0.00 0.00 99 1012.6
20260509102843 18 46 3.2 3.2 0.00 0.00 0.00 99 1012.7
20260509102340 18 10 1.6 3.2 0.00 0.00 0.00 99 1012.4
20260509101835 18 49 4.8 4.8 0.00 0.00 0.00 99 1012.4
20260509101332 18 55 4.8 4.8 0.00 0.00 0.00 99 1012.3
20260509100830 18 0 0.0 4.8 0.00 0.00 0.00 99 1012.1
20260509100327 18 335 0.0 3.2 0.00 0.00 0.00 99 1012.0
20260509095824 18 50 0.0 3.2 0.00 0.00 0.00 99 1012.1
20260509095321 18 72 1.6 3.2 0.00 0.00 0.00 99 1011.6
20260509094818 18 2 1.6 3.2 0.00 0.00 0.00 99 1011.3
20260509094315 18 37 0.0 3.2 0.00 0.00 0.00 99 1011.4
20260509093812 18 35 0.0 3.2 0.00 0.00 0.00 99 1011.0
20260509093309 18 42 3.2 3.2 0.00 0.00 0.00 99 1011.1
20260509092808 18 336 0.0 1.6 0.00 0.00 0.00 99 1010.9
20260509092306 18 37 1.6 1.6 0.00 0.00 0.00 99 1011.1
20260509091803 18 357 0.0 3.2 0.00 0.00 0.00 99 1010.9
20260509091300 18 20 0.0 1.6 0.00 0.00 0.00 99 1011.0
20260509090757 18 33 1.6 3.2 0.00 0.00 0.00 99 1011.0
20260509090254 18 7 0.0 3.2 0.00 0.00 0.00 99 1010.9
20260509085752 18 27 0.0 3.2 0.00 0.00 0.00 99 1011.0
20260509085249 18 30 0.0 3.2 0.00 0.00 0.00 99 1011.3
20260509084745 18 7 1.6 3.2 0.00 0.00 0.00 99 1011.1
20260509084242 18 356 1.6 3.2 0.00 0.00 0.00 99 1011.3
20260509083740 18 84 1.6 3.2 0.00 0.00 0.00 99 1010.9
20260509083237 18 32 0.0 1.6 0.00 0.00 0.00 99 1010.5
20260509082733 18 40 0.0 3.2 0.00 0.00 0.00 99 1010.2
20260509082230 18 24 0.0 3.2 0.00 0.00 0.00 99 1010.1
20260509081727 18 341 0.0 3.2 0.00 0.00 0.00 99 1010.1
20260509081224 18 31 1.6 1.6 0.00 0.00 0.00 99 1010.4
20260509080722 19 49 0.0 3.2 0.00 0.00 0.00 99 1010.6
20260509080220 19 217 0.0 3.2 0.00 0.00 0.00 99 1010.8
20260509075718 19 45 0.0 1.6 0.00 0.00 0.00 99 1011.4
20260509075215 20 23 1.6 1.6 0.00 0.00 0.00 99 1011.0
20260509074712 20 63 0.0 3.2 0.00 0.00 0.00 99 1011.0
20260509074210 20 50 1.6 1.6 0.00 0.00 0.00 99 1011.3
20260509073705 19 44 0.0 0.0 0.00 0.00 0.00 99 1011.3
20260509073202 19 44 0.0 0.0 0.00 0.00 0.00 99 1011.0
20260509072659 19 50 0.0 3.2 0.00 0.00 0.00 99 1010.8
20260509072155 19 3 0.0 1.6 0.00 0.00 0.00 99 1010.7
20260509071651 19 29 0.0 1.6 0.00 0.00 0.00 99 1010.7
20260509071149 20 333 0.0 0.0 0.00 0.00 0.00 99 1010.7
20260509070645 20 319 0.0 1.6 0.00 0.00 0.00 99 1010.8
20260509070142 20 155 0.0 1.6 0.00 0.00 0.00 99 1010.9
20260509065638 20 70 1.6 1.6 0.00 0.00 0.00 99 1010.7
20260509065135 20 35 0.0 3.2 0.00 0.00 0.00 99 1011.1
20260509064632 20 217 0.0 1.6 0.00 0.00 0.00 99 1010.9
20260509064130 20 16 0.0 3.2 0.00 0.00 0.00 99 1011.1
20260509063626 20 6 1.6 3.2 0.00 0.00 0.00 99 1011.0
20260509063123 20 22 0.0 3.2 0.00 0.00 0.00 99 1011.4
20260509062620 20 46 0.0 3.2 0.00 0.00 0.00 99 1011.3
20260509062116 20 50 0.0 1.6 0.00 0.00 0.00 99 1011.0
20260509061613 20 4 0.0 1.6 0.00 0.00 0.00 99 1010.9
20260509061111 19 322 0.0 1.6 0.00 0.00 0.00 99 1011.0
20260509060608 19 43 0.0 1.6 0.00 0.00 0.00 99 1010.8
20260509060104 19 32 0.0 3.2 0.00 0.00 0.00 99 1011.0
20260509055559 19 32 1.6 3.2 0.00 0.00 0.00 99 1010.6
20260509055055 19 302 0.0 3.2 0.00 0.00 0.00 99 1010.7
20260509054552 19 26 1.6 3.2 0.00 0.00 0.00 99 1010.5
20260509054050 19 13 0.0 1.6 0.00 0.00 0.00 99 1010.5
20260509053549 19 3 0.0 3.2 0.00 0.00 0.00 99 1010.6
20260509053045 19 22 0.0 3.2 0.00 0.00 0.00 99 1010.5
20260509052543 19 37 0.0 1.6 0.00 0.00 0.00 99 1010.4
20260509052041 19 51 1.6 3.2 0.00 0.00 0.00 99 1010.3
20260509051538 18 335 0.0 3.2 0.00 0.00 0.00 99 1010.2
20260509051035 18 31 0.0 3.2 0.00 0.00 0.00 99 1010.3
20260509050532 18 42 0.0 3.2 0.00 0.00 0.00 99 1010.2
20260509050028 18 359 0.0 1.6 0.00 0.00 0.00 99 1010.0
20260509045526 18 13 0.0 3.2 0.00 0.00 0.00 99 1009.8
20260509045023 19 26 3.2 3.2 0.00 0.00 0.00 99 1010.0
20260509044521 19 36 0.0 1.6 0.00 0.00 0.00 99 1010.2
20260509044019 19 346 0.0 3.2 0.00 0.00 0.00 99 1010.3
20260509043514 19 48 0.0 3.2 0.00 0.00 0.00 99 1010.1
20260509043004 19 8 0.0 3.2 0.00 0.00 0.00 99 1010.1
20260509042500 19 34 0.0 1.6 0.00 0.00 0.00 99 1010.1
20260509041956 19 18 0.0 1.6 0.00 0.00 0.00 99 1010.1
20260509041453 19 84 0.0 1.6 0.00 0.00 0.00 99 1010.0
20260509040952 18 23 1.6 1.6 0.00 0.00 0.00 99 1010.2
20260509040449 18 59 0.0 3.2 0.00 0.00 0.00 99 1010.1
20260509035946 19 51 0.0 3.2 0.00 0.00 0.00 99 1010.0
20260509035442 18 32 0.0 1.6 0.00 0.00 0.00 99 1010.0
20260509034939 19 14 1.6 1.6 0.00 0.00 0.00 99 1009.8
20260509034437 19 35 0.0 3.2 0.00 0.00 0.00 99 1009.8
20260509033934 18 36 0.0 1.6 0.00 0.00 0.00 99 1009.7
20260509033431 18 351 0.0 3.2 0.00 0.00 0.00 99 1009.7
20260509032927 18 347 0.0 1.6 0.00 0.00 0.00 99 1009.4
20260509032425 18 326 0.0 3.2 0.00 0.00 0.00 99 1009.6
20260509031923 18 17 1.6 3.2 0.00 0.00 0.00 99 1009.7
20260509031420 19 359 0.0 1.6 0.00 0.00 0.00 99 1009.7
20260509030917 19 44 3.2 3.2 0.00 0.00 0.00 99 1009.5
20260509030415 19 354 0.0 1.6 0.00 0.00 0.00 99 1009.3
20260509025912 19 164 0.0 1.6 0.00 0.00 0.00 99 1009.5
20260509025407 19 66 0.0 1.6 0.00 0.00 0.00 98 1009.2
20260509024903 20 321 0.0 1.6 0.00 0.00 0.00 98 1009.0
20260509024359 20 322 1.6 3.2 0.00 0.00 0.00 98 1008.9
20260509023856 19 330 0.0 1.6 0.00 0.00 0.00 98 1009.0
20260509023354 19 55 0.0 1.6 0.00 0.00 0.00 98 1009.1
20260509022850 19 27 1.6 3.2 0.00 0.00 0.00 98 1009.1
20260509022347 20 44 0.0 3.2 0.00 0.00 0.00 97 1009.1
20260509021844 20 29 0.0 1.6 0.00 0.00 0.00 97 1009.1
20260509021341 20 29 0.0 3.2 0.00 0.00 0.00 97 1009.1
20260509020839 20 33 0.0 1.6 0.00 0.00 0.00 96 1009.0
20260509020337 20 19 0.0 3.2 0.00 0.00 0.00 96 1009.1
20260509015834 20 35 0.0 3.2 0.00 0.00 0.00 96 1009.0
20260509015332 20 38 0.0 1.6 0.00 0.00 0.00 95 1008.8
20260509014828 20 65 0.0 3.2 0.00 0.00 0.00 95 1009.0
20260509014325 20 35 0.0 3.2 0.00 0.00 0.00 95 1008.8
20260509013822 20 2 3.2 3.2 0.00 0.00 0.00 94 1008.9
20260509013318 20 13 0.0 3.2 0.00 0.00 0.00 94 1008.8
20260509012815 21 12 0.0 1.6 0.00 0.00 0.00 94 1008.8
20260509012311 21 198 0.0 3.2 0.00 0.00 0.00 94 1008.9
20260509011809 21 50 0.0 1.6 0.00 0.00 0.00 94 1009.0
20260509011306 21 32 0.0 3.2 0.00 0.00 0.00 93 1008.7
20260509010804 21 28 3.2 3.2 0.00 0.00 0.00 93 1008.9
20260509010300 21 38 0.0 1.6 0.00 0.00 0.00 92 1008.7
20260509005758 21 31 0.0 1.6 0.00 0.00 0.00 92 1008.9
20260509005256 21 66 0.0 0.0 0.00 0.00 0.00 91 1008.8
20260509004750 21 124 0.0 1.6 0.00 0.00 0.00 91 1008.8
20260509004247 22 112 1.6 1.6 0.00 0.00 0.00 90 1008.7
20260509003745 22 233 0.0 1.6 0.00 0.00 0.00 90 1008.4
20260509003242 22 63 0.0 3.2 0.00 0.00 0.00 89 1008.6
20260509002740 22 96 0.0 4.8 0.00 0.00 0.00 88 1008.7
20260509002237 22 124 0.0 1.6 0.00 0.00 0.00 87 1008.6
20260509001734 22 173 1.6 3.2 0.00 0.00 0.00 87 1008.8
20260509001230 22 318 0.0 3.2 0.00 0.00 0.00 87 1008.7
20260509000728 22 53 1.6 3.2 0.00 0.00 0.00 88 1008.6
20260509000226 22 129 0.0 3.2 0.00 0.00 0.00 88 1008.7
20260508235722 22 76 0.0 4.8 0.00 0.00 0.00 88 1008.6
20260508235218 22 336 0.0 3.2 0.00 0.00 0.00 88 1008.8
20260508234710 22 43 0.0 1.6 0.00 0.00 0.00 88 1008.8
20260508234206 22 89 0.0 1.6 0.00 0.00 0.00 88 1008.9
20260508233706 22 195 1.6 3.2 0.00 0.00 0.00 87 1008.8
20260508233203 22 249 1.6 1.6 0.00 0.00 0.00 87 1009.0
20260508232700 22 113 0.0 1.6 0.00 0.00 0.00 87 1008.8
20260508232156 22 37 0.0 4.8 0.00 0.00 0.00 87 1008.9
20260508231655 22 151 0.0 3.2 0.00 0.00 0.00 86 1008.9
20260508231151 22 63 0.0 6.4 0.00 0.00 0.00 87 1008.9
20260508230648 22 15 0.0 3.2 0.00 0.00 0.00 86 1008.8
20260508230144 22 306 0.0 3.2 0.00 0.00 0.00 86 1008.8
20260508225642 22 156 0.0 3.2 0.00 0.00 0.00 85 1009.0
20260508225138 22 35 0.0 3.2 0.00 0.00 0.00 85 1009.0
20260508224636 22 72 0.0 1.6 0.00 0.00 0.00 85 1008.9
20260508224134 22 57 0.0 3.2 0.00 0.00 0.00 85 1008.7
20260508223631 22 169 0.0 4.8 0.00 0.00 0.00 85 1008.7
20260508223128 22 126 1.6 4.8 0.00 0.00 0.00 86 1008.8
20260508222626 22 143 1.6 1.6 0.00 0.00 0.00 85 1009.0
20260508222122 22 221 1.6 4.8 0.00 0.00 0.00 85 1009.1
20260508221618 23 48 3.2 3.2 0.00 0.00 0.00 84 1009.1
20260508221114 23 32 3.2 3.2 0.00 0.00 0.00 83 1009.2
20260508220611 23 322 0.0 4.8 0.00 0.00 0.00 83 1009.2
20260508220108 23 110 0.0 3.2 0.00 0.00 0.00 83 1009.1
20260508215604 23 120 1.6 3.2 0.00 0.00 0.00 82 1009.3
20260508215101 23 77 0.0 4.8 0.00 0.00 0.00 82 1009.4
20260508214559 23 57 0.0 1.6 0.00 0.00 0.00 83 1009.1
20260508214055 23 193 3.2 4.8 0.00 0.00 0.00 82 1009.5
20260508213552 23 166 0.0 3.2 0.00 0.00 0.00 83 1009.5
20260508213048 22 111 1.6 3.2 0.00 0.00 0.00 84 1009.5
20260508212545 23 39 4.8 4.8 0.00 0.00 0.00 82 1009.8
20260508212041 23 89 0.0 3.2 0.00 0.00 0.00 80 1009.8
20260508211537 25 65 0.0 3.2 0.00 0.00 0.00 78 1009.7
20260508211033 25 220 3.2 4.8 0.00 0.00 0.00 77 1009.6
20260508210530 23 119 1.6 1.6 0.00 0.00 0.00 81 1009.9
20260508210028 24 209 0.0 3.2 0.00 0.00 0.00 79 1009.8
20260508205524 23 34 0.0 1.6 0.00 0.00 0.00 81 1009.9
20260508205020 23 35 0.0 3.2 0.00 0.00 0.00 84 1010.1
20260508204518 23 154 1.6 1.6 0.00 0.00 0.00 83 1010.2
20260508204013 22 129 0.0 3.2 0.00 0.00 0.00 82 1010.2
20260508203509 23 50 0.0 3.2 0.00 0.00 0.00 83 1010.4
20260508203005 23 117 0.0 4.8 0.00 0.00 0.00 82 1010.4
20260508202502 22 76 0.0 3.2 0.00 0.00 0.00 82 1010.3